| time (UTC) | temp F | wind direction | speed MPH | gust MPH | rain 1hr in | rain 24hr in | rain mn in | humidity % | barometer mb |
| 20260831171534 | 87 | 61 | 0.0 | 6.0 | 0.00 | 0.01 | 0.01 | 86 | 1015.0 |
| 20260831170031 | 88 | 161 | 0.0 | 6.0 | 0.00 | 0.01 | 0.01 | 84 | 1014.9 |
| 20260831164530 | 87 | 351 | 3.0 | 7.0 | 0.00 | 0.18 | 0.01 | 85 | 1015.0 |
| 20260831163038 | 87 | 44 | 1.0 | 5.0 | 0.00 | 0.18 | 0.01 | 84 | 1015.2 |
| 20260831161532 | 88 | 44 | 2.0 | 6.0 | 0.00 | 0.18 | 0.01 | 81 | 1015.4 |
| 20260831160037 | 90 | 19 | 0.0 | 5.0 | 0.00 | 0.18 | 0.01 | 80 | 1015.6 |
| 20260831154529 | 90 | 8 | 1.0 | 7.0 | 0.00 | 0.90 | 0.01 | 79 | 1015.6 |
| 20260831153022 | 89 | 169 | 1.0 | 6.0 | 0.00 | 0.90 | 0.01 | 80 | 1015.5 |
| 20260831151524 | 88 | 124 | 0.0 | 6.0 | 0.00 | 0.90 | 0.01 | 82 | 1015.6 |
| 20260831150025 | 89 | 146 | 0.0 | 5.0 | 0.00 | 0.90 | 0.01 | 84 | 1015.4 |
| 20260831144521 | 88 | 231 | 0.0 | 3.0 | 0.00 | 0.90 | 0.01 | 86 | 1015.5 |
| 20260831143022 | 86 | 4 | 0.0 | 2.0 | 0.00 | 0.90 | 0.01 | 86 | 1015.5 |
| 20260831141509 | 85 | 40 | 0.0 | 2.0 | 0.00 | 0.90 | 0.01 | 90 | 1015.5 |
| 20260831140007 | 84 | 35 | 0.0 | 2.0 | 0.00 | 0.90 | 0.01 | 92 | 1015.4 |
| 20260831134505 | 83 | 15 | 0.0 | 3.0 | 0.00 | 0.90 | 0.01 | 92 | 1015.4 |
| 20260831133100 | 82 | 21 | 0.0 | 2.0 | 0.00 | 0.90 | 0.01 | 93 | 1015.2 |
| 20260831131600 | 81 | 34 | 0.0 | 1.0 | 0.00 | 0.90 | 0.01 | 94 | 1015.1 |
| 20260831130101 | 81 | 32 | 0.0 | 2.0 | 0.00 | 0.90 | 0.01 | 94 | 1015.0 |
| 20260831124555 | 80 | 41 | 0.0 | 2.0 | 0.00 | 0.90 | 0.01 | 95 | 1014.9 |
| 20260831123049 | 79 | 14 | 1.0 | 3.0 | 0.00 | 0.90 | 0.01 | 96 | 1014.9 |
| 20260831121547 | 78 | 188 | 0.0 | 1.0 | 0.00 | 0.90 | 0.01 | 98 | 1014.8 |
| 20260831120053 | 77 | 181 | 0.0 | 0.0 | 0.00 | 0.90 | 0.01 | 98 | 1014.5 |
| 20260831114541 | 76 | 180 | 0.0 | 0.0 | 0.00 | 0.90 | 0.01 | 98 | 1014.2 |
| 20260831113050 | 76 | 180 | 0.0 | 0.0 | 0.00 | 0.90 | 0.01 | 99 | 1014.2 |
| 20260831111541 | 76 | 165 | 0.0 | 0.0 | 0.00 | 0.90 | 0.01 | 98 | 1014.0 |
| 20260831110039 | 75 | 164 | 0.0 | 0.0 | 0.00 | 0.90 | 0.01 | 98 | 1013.8 |
| 20260831104538 | 75 | 165 | 0.0 | 0.0 | 0.00 | 0.91 | 0.01 | 98 | 1013.7 |
| 20260831103047 | 75 | 165 | 0.0 | 0.0 | 0.00 | 0.91 | 0.01 | 98 | 1013.5 |
| 20260831101542 | 75 | 165 | 0.0 | 0.0 | 0.00 | 0.91 | 0.01 | 98 | 1013.5 |
| 20260831100039 | 75 | 165 | 0.0 | 0.0 | 0.00 | 0.91 | 0.01 | 98 | 1013.4 |
| 20260831094546 | 75 | 165 | 0.0 | 0.0 | 0.00 | 0.91 | 0.01 | 98 | 1013.3 |
| 20260831093035 | 75 | 165 | 0.0 | 0.0 | 0.00 | 0.91 | 0.01 | 98 | 1013.3 |
| 20260831091543 | 76 | 165 | 0.0 | 0.0 | 0.00 | 0.91 | 0.01 | 98 | 1013.4 |
| 20260831090038 | 75 | 164 | 0.0 | 0.0 | 0.00 | 0.91 | 0.01 | 98 | 1013.4 |
| 20260831084534 | 76 | 165 | 0.0 | 0.0 | 0.00 | 0.91 | 0.01 | 98 | 1013.6 |
| 20260831083031 | 76 | 165 | 0.0 | 0.0 | 0.00 | 0.91 | 0.01 | 98 | 1013.7 |
| 20260831081531 | 76 | 165 | 0.0 | 0.0 | 0.00 | 0.91 | 0.01 | 98 | 1013.7 |
| 20260831080034 | 76 | 165 | 0.0 | 0.0 | 0.00 | 0.91 | 0.01 | 98 | 1013.6 |
| 20260831074528 | 76 | 165 | 0.0 | 0.0 | 0.00 | 0.91 | 0.01 | 98 | 1013.5 |
| 20260831073027 | 76 | 165 | 0.0 | 0.0 | 0.00 | 0.91 | 0.01 | 98 | 1013.8 |
| 20260831071527 | 76 | 165 | 0.0 | 0.0 | 0.00 | 0.91 | 0.01 | 98 | 1014.0 |
| 20260831070024 | 76 | 165 | 0.0 | 0.0 | 0.00 | 0.91 | 0.01 | 97 | 1014.0 |
| 20260831064522 | 76 | 165 | 0.0 | 0.0 | 0.00 | 0.91 | 0.01 | 97 | 1014.0 |
| 20260831063059 | 76 | 165 | 0.0 | 0.0 | 0.00 | 0.91 | 0.01 | 97 | 1014.0 |
| 20260831061605 | 76 | 165 | 0.0 | 0.0 | 0.01 | 0.91 | 0.01 | 97 | 1014.0 |
| 20260831060056 | 76 | 165 | 0.0 | 0.0 | 0.01 | 0.91 | 0.01 | 96 | 1014.3 |
| 20260831054554 | 76 | 165 | 0.0 | 0.0 | 0.01 | 0.91 | 0.01 | 97 | 1014.5 |
| 20260831053053 | 76 | 165 | 0.0 | 0.0 | 0.01 | 0.91 | 0.01 | 97 | 1014.8 |
| 20260831051600 | 76 | 42 | 0.0 | 0.0 | 0.00 | 0.90 | 0.00 | 97 | 1014.8 |
| 20260831050050 | 76 | 42 | 0.0 | 1.0 | 0.00 | 0.90 | 0.00 | 97 | 1014.9 |
| 20260831044554 | 76 | 42 | 0.0 | 0.0 | 0.00 | 0.90 | 0.00 | 97 | 1015.0 |
| 20260831043049 | 76 | 42 | 0.0 | 0.0 | 0.00 | 0.90 | 0.00 | 97 | 1015.0 |
| 20260831041551 | 76 | 42 | 0.0 | 0.0 | 0.00 | 0.90 | 0.00 | 96 | 1015.1 |
| 20260831040045 | 76 | 42 | 0.0 | 0.0 | 0.00 | 0.90 | 0.00 | 96 | 1015.1 |
| 20260831034548 | 76 | 42 | 0.0 | 0.0 | 0.00 | 0.90 | 0.90 | 96 | 1015.3 |
| 20260831033044 | 77 | 42 | 0.0 | 0.0 | 0.00 | 0.90 | 0.90 | 95 | 1015.4 |
| 20260831031543 | 77 | 42 | 0.0 | 0.0 | 0.00 | 0.90 | 0.90 | 95 | 1015.3 |
| 20260831030043 | 77 | 42 | 0.0 | 0.0 | 0.00 | 0.90 | 0.90 | 95 | 1015.1 |
| 20260831024542 | 77 | 42 | 0.0 | 1.0 | 0.00 | 0.90 | 0.90 | 95 | 1015.0 |
| 20260831023041 | 77 | 42 | 0.0 | 0.0 | 0.00 | 0.90 | 0.90 | 95 | 1015.0 |
| 20260831021541 | 77 | 42 | 0.0 | 0.0 | 0.00 | 0.90 | 0.90 | 94 | 1015.1 |
| 20260831020045 | 77 | 42 | 0.0 | 0.0 | 0.00 | 0.90 | 0.90 | 94 | 1015.2 |
| 20260831014541 | 78 | 42 | 0.0 | 0.0 | 0.00 | 0.90 | 0.90 | 94 | 1015.3 |
| 20260831013046 | 78 | 42 | 0.0 | 0.0 | 0.00 | 0.90 | 0.90 | 93 | 1015.3 |
| 20260831011545 | 79 | 42 | 0.0 | 0.0 | 0.00 | 0.90 | 0.90 | 92 | 1015.3 |
| 20260831010043 | 79 | 42 | 0.0 | 1.0 | 0.00 | 0.90 | 0.90 | 91 | 1015.4 |
| 20260831004538 | 79 | 42 | 0.0 | 2.0 | 0.00 | 0.90 | 0.90 | 90 | 1015.1 |
| 20260831003039 | 80 | 39 | 0.0 | 2.0 | 0.00 | 0.90 | 0.90 | 90 | 1015.0 |
| 20260831001537 | 80 | 46 | 0.0 | 1.0 | 0.00 | 0.90 | 0.90 | 89 | 1014.9 |
| 20260831000037 | 81 | 46 | 0.0 | 4.0 | 0.00 | 0.90 | 0.90 | 88 | 1014.9 |
| 20260830234541 | 82 | 46 | 0.0 | 1.0 | 0.00 | 0.90 | 0.90 | 86 | 1014.8 |
| 20260830233037 | 83 | 46 | 0.0 | 1.0 | 0.00 | 0.90 | 0.90 | 84 | 1014.6 |
| 20260830231536 | 83 | 46 | 0.0 | 1.0 | 0.00 | 0.90 | 0.90 | 83 | 1014.3 |
| 20260830230035 | 84 | 46 | 0.0 | 1.0 | 0.00 | 0.90 | 0.90 | 81 | 1014.0 |
| 20260830224535 | 84 | 46 | 0.0 | 1.0 | 0.00 | 0.92 | 0.90 | 81 | 1014.1 |
| 20260830223036 | 84 | 46 | 0.0 | 2.0 | 0.00 | 0.92 | 0.90 | 80 | 1014.4 |
| 20260830221544 | 84 | 47 | 0.0 | 3.0 | 0.00 | 0.92 | 0.90 | 79 | 1014.3 |
| 20260830220034 | 84 | 44 | 0.0 | 3.0 | 0.00 | 0.92 | 0.90 | 78 | 1014.3 |
| 20260830214532 | 86 | 33 | 0.0 | 1.0 | 0.00 | 0.93 | 0.90 | 77 | 1014.2 |
| 20260830213032 | 86 | 32 | 0.0 | 4.0 | 0.00 | 0.93 | 0.90 | 77 | 1014.0 |
| 20260830211532 | 87 | 29 | 0.0 | 3.0 | 0.00 | 0.93 | 0.90 | 76 | 1014.2 |
| 20260830210035 | 88 | 42 | 0.0 | 5.0 | 0.00 | 0.93 | 0.90 | 75 | 1014.3 |
| 20260830204530 | 87 | 355 | 3.0 | 8.0 | 0.00 | 0.95 | 0.90 | 75 | 1014.2 |
| 20260830203030 | 87 | 52 | 1.0 | 5.0 | 0.00 | 0.95 | 0.90 | 76 | 1014.2 |
| 20260830201528 | 87 | 17 | 0.0 | 5.0 | 0.00 | 0.95 | 0.90 | 76 | 1014.6 |
| 20260830200041 | 87 | 25 | 0.0 | 4.0 | 0.00 | 0.95 | 0.90 | 78 | 1014.6 |
| 20260830194528 | 86 | 18 | 0.0 | 4.0 | 0.00 | 0.98 | 0.90 | 79 | 1014.7 |
| 20260830193028 | 88 | 26 | 0.0 | 2.0 | 0.00 | 0.98 | 0.90 | 78 | 1014.7 |
| 20260830191527 | 88 | 119 | 0.0 | 0.0 | 0.00 | 0.98 | 0.90 | 76 | 1014.8 |
| 20260830190041 | 86 | 35 | 0.0 | 0.0 | 0.00 | 0.98 | 0.90 | 79 | 1014.7 |
| 20260830184524 | 85 | 36 | 0.0 | 2.0 | 0.00 | 0.98 | 0.90 | 83 | 1014.8 |
| 20260830183024 | 83 | 8 | 1.0 | 5.0 | 0.00 | 0.98 | 0.90 | 85 | 1015.2 |
| 20260830181522 | 81 | 41 | 0.0 | 4.0 | 0.00 | 0.98 | 0.90 | 89 | 1015.5 |
| 20260830180026 | 80 | 61 | 0.0 | 5.0 | 0.00 | 0.98 | 0.90 | 92 | 1015.8 |
| 20260830174521 | 78 | 18 | 2.0 | 8.0 | 0.02 | 0.98 | 0.90 | 95 | 1016.3 |
| 20260830173020 | 77 | 58 | 1.0 | 6.0 | 0.04 | 0.98 | 0.90 | 96 | 1016.4 |